7 * 24
多渠道服务支持
COSMOS 1778(GLONASS),由独立国家联合体(CIS)于1986年9月16日发射,是苏联格洛纳斯卫星导航系统的组网卫星。该卫星由俄罗斯列舍特涅夫卫星信息系统研发制造,采用三轴稳定模式,运行于近地中轨道,倾角约64.7°,为全球导航定位服务提供支持,目前已退役,推动了全球卫星导航系统的早期发展。
俄罗斯(独联体)
(CIS)
| 数据来源 | 国际轨道数据 |
| 星历时间: | 2026-09-11T02:37:15+0800 1天前 查看轨道信息 |
| 半长轴: | 25507.969km |
| 偏心率: | 0.0004191 |
| 轨道倾角: | 64.951° |
| 近地点辐角 | 215.230° |
| 升交点赤经 | 69.412° |
| 平近点角 | 144.019° |
| 近地点: | 19119.141km |
| 远地点: | 19140.523km |
| 周期: | 675.731分钟 |
| 每日圈数: | 2.131027 |